SL-12 DEB, 43334

Orbit data source: Space-Track

SL-12 DEB, 43334 is space debris in LEO originally from a launch on Tue, 10 Jan 1989 UTC launched from the Tyuratam Missile And Space Complex (TTMTR). Debris objects in space refer to the collection of defunct objects orbiting the Earth. Examples of debris include non-operational satellites, rocket bodies, and fragments generated from explosions, collisions, or faulty payload assembly.

Loading next visibility...
Identifier
43334, 1989-001Y
Orbit
LEO
Country
Flag of CISCIS
Related business
Manufacturer
Unknown
Mission
Spacecraft
Bus & Motor
Unknown
Mass
Unknown
Launch date (UTC)
1989-01-10 (37 years ago)
Launch vehicle
Unknown
Launch site
Tyuratam Missile And Space Complex (TTMTR)
Object type
Payload
Rocket body
Debris
Shape & HBR
Unknown shape, 0.1 m
Radar Cross Section
Medium (>0.1 m² and <1 m²)

Expand to show TLE details & history
Last TLE update: 21 hours ago

TLE from 21 hours ago
0 SL-12 DEB
1 43334U 89001Y   25350.29004808  .00008331  00000-0  14168+0 0  9995
2 43334  64.5718  50.5296 1723498  12.7293 351.1902  9.84987780143071
Epoch: 2025-12-16T06:57Z
TLE epoch observation values (Epoch: 2025-12-16T06:57:40.154Z)
Latitude
Longitude
-139.06409°
Altitude
1,258.897 km
Speed
7.814 km/s
True Right ascension
03h 22m 07s
True Declination
0° 00' 00"
Sunlit
Object was in full shadow at epoch
Visualization orbit readout
Latitude
Unknown
Longitude
Unknown
Altitude
Unknown
Speed
Unknown
Apparent Right ascension
Unknown
Apparent Declination
Unknown
Sunlit
N/A
Visualization observer readout
Local Sidereal Time
02:43:24
Azimuth
Unknown
Elevation
Unknown
Doppler factor
Unknown
Orbital elements
Apogee altitude
4,397.737 km
Perigee altitude
1,229.366 km
Semi-major axis
9,191.689 km
Eccentricity
0.17235
Inclination
64.5718°
RAAN
50.5296°
Arg. of periapsis
12.7293°
True anomaly
347.36168°
Mean anomaly
351.1902°
Eccentric anomaly
349.36833°
Mean motion
2.46292 °/min
Orbital period
146.17 mins
BSTAR
0.14168
Loading maneuver chart data...
Computing Atmospheric mass density...
Loading historical data...
Loading historical data...
Loading historical data...
Loading historical data...
Loading historical data...
Loading historical data...
Loading historical data...

Documentation

Showing up to 5 results
|